Weather History for Casa Grande, AZ

Change the Weather History Date:

Saturday, October 29, 2011

  Actual Average Record
Temperature  
Mean Temperature 70 °F -  
Max Temperature 84 °F 76 °F 91 °F (2007)
Min Temperature 55 °F 49 °F 37 °F (1996)
Cooling Degree Days 4    
Growing Degree Days 20 (Base 50)    
Moisture  
Dew Point 34 °F    
Average Humidity 28    
Maximum Humidity 41    
Minimum Humidity 16    
Precipitation  
Precipitation 0.00 in - - ()
Sea Level Pressure  
Sea Level Pressure 30.02 in    
Wind  
Wind Speed 4 mph (NE)    
Max Wind Speed 13 mph    
Max Gust Speed -    
Visibility 10 miles    
Events      
Averages and records for this station are not official NWS values.
T = Trace of Precipitation, MM = Missing Value Source: NWS Daily Summary

Daily Weather History Graph

Daily Weather History Graph

Search for Another Location

Airport:

Trip Planner

Search our weather history database for the weather conditions in past years. The results will help you decide how hot, cold, wet, or windy it might be!

Date:

Astronomy

Oct. 29, 2011 Rise Set
Actual Time 6:42 AM MST 5:38 PM MST
Civil Twilight 6:16 AM MST 6:04 PM MST
Nautical Twilight 5:47 AM MST 6:33 PM MST
Astronomical Twilight 5:19 AM MST 7:02 PM MST
Moon 9:58 AM MST (10/29) 8:16 PM MST (10/29)
Length of Visible Light 11h 47m
Length of Day
10h 56m
Waxing Crescent, 12% of the Moon is Illuminated
Oct 29
Waxing Crescent
Nov 2
First Quarter
Nov 10
Full
Nov 18
Last Quarter
Nov 24
New

Hourly Weather History & Observations

Time (MST) Temp. Dew Point Humidity Pressure Visibility Wind Dir Wind Speed Gust Speed Precip Events Conditions
12:15 AM 66.2 °F 33.8 °F 30% 30.02 in 10.0 mi NNE 8.1 mph - N/A   Clear
12:35 AM 66.2 °F 33.8 °F 30% 30.02 in 10.0 mi NNE 6.9 mph - N/A   Clear
12:55 AM 66.2 °F 33.8 °F 30% 30.02 in 10.0 mi NNE 3.5 mph - N/A   Clear
1:15 AM 68.0 °F 32.0 °F 26% 30.02 in 10.0 mi SE 4.6 mph - N/A   Clear
1:35 AM 62.6 °F 32.0 °F 32% 30.02 in 10.0 mi SSE 3.5 mph - N/A   Clear
1:55 AM 59.0 °F 32.0 °F 36% 30.02 in 10.0 mi Calm Calm - N/A   Clear
2:15 AM 57.2 °F 32.0 °F 38% 30.01 in 10.0 mi Calm Calm - N/A   Clear
2:35 AM 57.2 °F 30.2 °F 36% 30.01 in 10.0 mi East 3.5 mph - N/A   Clear
3:15 AM 60.8 °F 32.0 °F 34% 30.01 in 10.0 mi ENE 5.8 mph - N/A   Clear
3:35 AM 60.8 °F 33.8 °F 36% 30.01 in 10.0 mi East 6.9 mph - N/A   Clear
3:55 AM 60.8 °F 33.8 °F 36% 30.01 in 10.0 mi East 4.6 mph - N/A   Clear
4:15 AM 59.0 °F 33.8 °F 39% 30.02 in 10.0 mi ENE 4.6 mph - N/A   Clear
4:35 AM 57.2 °F 32.0 °F 38% 30.02 in 10.0 mi NE 4.6 mph - N/A   Clear
4:55 AM 57.2 °F 32.0 °F 38% 30.03 in 10.0 mi NE 4.6 mph - N/A   Clear
5:15 AM 57.2 °F 32.0 °F 38% 30.03 in 10.0 mi NE 4.6 mph - N/A   Clear
5:35 AM 57.2 °F 32.0 °F 38% 30.03 in 10.0 mi NNE 6.9 mph - N/A   Clear
5:55 AM 57.2 °F 33.8 °F 41% 30.03 in 10.0 mi NE 4.6 mph - N/A   Clear
6:15 AM 57.2 °F 32.0 °F 38% 30.03 in 10.0 mi NE 4.6 mph - N/A   Clear
6:35 AM 57.2 °F 32.0 °F 38% 30.04 in 10.0 mi NE 3.5 mph - N/A   Clear
6:55 AM 55.4 °F 32.0 °F 41% 30.04 in 10.0 mi Calm Calm - N/A   Clear
7:15 AM 57.2 °F 33.8 °F 41% 30.04 in 10.0 mi Calm Calm - N/A   Clear
7:35 AM 59.0 °F 32.0 °F 36% 30.05 in 10.0 mi Calm Calm - N/A   Clear
7:55 AM 60.8 °F 32.0 °F 34% 30.06 in 10.0 mi Calm Calm - N/A   Clear
8:15 AM 59.0 °F 33.8 °F 39% 30.06 in 10.0 mi Calm Calm - N/A   Clear
8:35 AM 64.4 °F 33.8 °F 32% 30.06 in 10.0 mi Calm Calm - N/A   Clear
8:55 AM 68.0 °F 35.6 °F 30% 30.06 in 10.0 mi East 6.9 mph - N/A   Clear
9:15 AM 71.6 °F 35.6 °F 27% 30.07 in 10.0 mi East 12.7 mph - N/A   Clear
9:35 AM 71.6 °F 35.6 °F 27% 30.07 in 10.0 mi ENE 10.4 mph - N/A   Clear
9:55 AM 71.6 °F 35.6 °F 27% 30.07 in 10.0 mi East 9.2 mph - N/A   Clear
10:15 AM 73.4 °F 35.6 °F 25% 30.07 in 10.0 mi East 8.1 mph - N/A   Clear
10:35 AM 73.4 °F 35.6 °F 25% 30.07 in 10.0 mi East 6.9 mph - N/A   Clear
10:55 AM 75.2 °F 35.6 °F 24% 30.07 in 10.0 mi ESE 5.8 mph - N/A   Clear
11:15 AM 75.2 °F 35.6 °F 24% 30.06 in 10.0 mi Calm Calm - N/A   Clear
11:35 AM 77.0 °F 35.6 °F 22% 30.06 in 10.0 mi Calm Calm - N/A   Clear
11:55 AM 78.8 °F 35.6 °F 21% 30.04 in 10.0 mi NE 4.6 mph - N/A   Clear
12:15 PM 78.8 °F 35.6 °F 21% 30.04 in 10.0 mi Calm Calm - N/A   Clear
12:35 PM 80.6 °F 37.4 °F 21% 30.02 in 10.0 mi Calm Calm - N/A   Clear
12:55 PM 80.6 °F 37.4 °F 21% 30.01 in 10.0 mi North 6.9 mph - N/A   Clear
1:15 PM 82.4 °F 35.6 °F 19% 30.00 in 10.0 mi ENE 3.5 mph - N/A   Clear
1:35 PM 82.4 °F 35.6 °F 19% 29.99 in 10.0 mi ESE 3.5 mph - N/A   Clear
1:55 PM 82.4 °F 35.6 °F 19% 29.99 in 10.0 mi Calm Calm - N/A   Clear
2:15 PM 82.4 °F 35.6 °F 19% 29.98 in 10.0 mi Calm Calm - N/A   Clear
2:35 PM 84.2 °F 35.6 °F 18% 29.97 in 10.0 mi Calm Calm - N/A   Clear
2:55 PM 84.2 °F 35.6 °F 18% 29.97 in 10.0 mi Calm Calm - N/A   Clear
3:15 PM 84.2 °F 35.6 °F 18% 29.97 in 10.0 mi West 5.8 mph - N/A   Clear
3:35 PM 84.2 °F 35.6 °F 18% 29.97 in 10.0 mi Calm Calm - N/A   Clear
3:55 PM 84.2 °F 33.8 °F 16% 29.97 in 10.0 mi SW 3.5 mph - N/A   Clear
4:15 PM 84.2 °F 33.8 °F 16% 29.96 in 10.0 mi WSW 5.8 mph - N/A   Clear
4:35 PM 84.2 °F 35.6 °F 18% 29.96 in 10.0 mi WSW 6.9 mph - N/A   Clear
5:15 PM 82.4 °F 35.6 °F 19% 29.96 in 10.0 mi NNW 6.9 mph - N/A   Clear
5:35 PM 80.6 °F 33.8 °F 18% 29.96 in 10.0 mi NNW 4.6 mph - N/A   Clear
5:55 PM 78.8 °F 33.8 °F 20% 29.97 in 10.0 mi NNW 4.6 mph - N/A   Clear
6:15 PM 75.2 °F 33.8 °F 22% 29.97 in 10.0 mi NW 4.6 mph - N/A   Clear
6:35 PM 75.2 °F 32.0 °F 21% 29.97 in 10.0 mi NW 5.8 mph - N/A   Clear
6:55 PM 73.4 °F 32.0 °F 22% 29.98 in 10.0 mi NNW 6.9 mph - N/A   Clear
7:15 PM 73.4 °F 32.0 °F 22% 29.98 in 10.0 mi NW 5.8 mph - N/A   Clear
7:35 PM 71.6 °F 32.0 °F 23% 29.98 in 10.0 mi NW 4.6 mph - N/A   Clear
7:55 PM 71.6 °F 32.0 °F 23% 29.98 in 10.0 mi NW 3.5 mph - N/A   Clear
8:15 PM 69.8 °F 30.2 °F 23% 29.98 in 10.0 mi NW 4.6 mph - N/A   Clear
8:35 PM 69.8 °F 30.2 °F 23% 29.98 in 10.0 mi NW 4.6 mph - N/A   Clear
8:55 PM 66.2 °F 28.4 °F 24% 29.99 in 10.0 mi Calm Calm - N/A   Clear
9:15 PM 62.6 °F 28.4 °F 27% 29.99 in 10.0 mi NNW 3.5 mph - N/A   Clear
9:35 PM 62.6 °F 30.2 °F 30% 30.00 in 10.0 mi Calm Calm - N/A   Clear
9:55 PM 64.4 °F 30.2 °F 28% 30.00 in 10.0 mi Calm Calm - N/A   Clear
10:15 PM 62.6 °F 28.4 °F 27% 30.00 in 10.0 mi Calm Calm - N/A   Clear
10:35 PM 60.8 °F 28.4 °F 29% 30.00 in 10.0 mi Calm Calm - N/A   Clear
10:55 PM 62.6 °F 32.0 °F 32% 30.01 in 10.0 mi Calm Calm - N/A   Clear
11:15 PM 60.8 °F 28.4 °F 29% 30.00 in 10.0 mi Calm Calm - N/A   Clear
11:35 PM 57.2 °F 28.4 °F 33% 30.01 in 10.0 mi Calm Calm - N/A   Clear
11:55 PM 59.0 °F 28.4 °F 31% 30.01 in 10.0 mi NNE 3.5 mph - N/A   Clear